Location: Writing-on-Stone Provincial Park
(49.0825°N, 111.6163°W)
Time: 23:48:13
(UTC-06:00)

Amateur Radio Satellites - All Passes

Search period start: 18 September 2014 23:18
Search period end: 19 September 2014 23:18
Location: Writing-on-Stone Provincial Park, 49.0825°N, 111.6163°W

Satellite Date Start Highest point End Downlink Frequencies (MHz)
Time Altitude Azimuth
AO-40 18 Sep 23:34:11 01:33:14 21° 211° (SSW) 04:52:54 Beacon 2401.320
FUNcube-1 18 Sep 23:41:32 23:45:28 31° 265° (W) 23:49:32 145.950 - 145.970 MHz USB
Oscar 11 18 Sep 23:57:49 23:58:39 10° 274° (W) 23:59:28 145.825 FM, Beacon 2401.500 USB
Sapphire 19 Sep 00:03:51 00:05:47 12° 258° (WSW) 00:07:44 437.095 MHz 1200 baud AX-25 AFSK
KITSAT 1 19 Sep 00:06:23 00:12:58 26° 344° (NNW) 00:19:34 435.175 FM
Saudisat 1A 19 Sep 00:17:33 00:20:22 16° 23° (NNE) 00:23:10 436.775 MHz
SO-50 19 Sep 00:33:44 00:38:11 56° 315° (NW) 00:42:46 436.795 FM
UOSAT-12 19 Sep 00:36:49 00:40:28 23° 114° (ESE) 00:44:10 437.025 FM, 437.400 FM
Oscar 10/S400 19 Sep 01:12:14 02:05:02 39° 212° (SSW) 07:25:25 145.825 - 145.975 CW/USB, Beacon 145.810 USB
Oscar 19 19 Sep 01:40:05 01:42:24 13° 86° (E) 01:44:41 437.125 CW, 437.150 USB
Saudisat 1A 19 Sep 01:56:33 02:00:54 53° 45° (NE) 02:05:14 436.775 MHz
KITSAT 1 19 Sep 02:04:47 02:11:20 26° 14° (NNE) 02:17:52 435.175 FM
UOSAT-12 19 Sep 02:15:38 02:20:15 61° 314° (NW) 02:24:58 437.025 FM, 437.400 FM
SO-50 19 Sep 02:16:38 02:19:45 18° 338° (NNW) 02:22:55 436.795 FM
Oscar 16 19 Sep 02:17:13 02:21:39 28° 94° (E) 02:26:03 437.025 USB, Beacon 2401.1428
AO-Echo 19 Sep 02:36:25 02:39:59 20° 91° (E) 02:43:36 ?
Gurwin Techsat 1B 19 Sep 02:45:24 02:46:50 11° 84° (E) 02:48:15 435.225 FM
ITAMSAT 1 19 Sep 02:59:05 03:03:34 28° 94° (E) 03:08:01 435.822 SSB
Uribyol 2 19 Sep 03:03:21 03:08:03 32° 95° (E) 03:12:42 436.500 FM
JAS-1B 19 Sep 03:14:01 03:19:33 41° 97° (E) 03:24:53 435.800 - 435.900 CW/SSB
Oscar 19 19 Sep 03:17:20 03:22:33 84° 105° (ESE) 03:27:43 437.125 CW, 437.150 USB
TMSAT-1 19 Sep 03:21:13 03:24:44 18° 89° (E) 03:28:14 436.925 FM
AO-27 19 Sep 03:33:33 03:38:41 55° 101° (E) 03:43:48 436.795 MHz FM
ISS 19 Sep 03:36:31 03:38:59 19° 140° (SE) 03:41:27 145.800 FM
Saudisat 1A 19 Sep 03:36:38 03:40:13 24° 244° (WSW) 03:43:47 436.775 MHz
OPAL 19 Sep 03:54:45 03:59:04 27° 58° (ENE) 04:03:25 ?
Oscar 16 19 Sep 03:56:15 04:01:13 47° 293° (WNW) 04:06:09 437.025 USB, Beacon 2401.1428
UOSAT-12 19 Sep 03:58:00 04:01:20 19° 336° (NNW) 04:04:42 437.025 FM, 437.400 FM
SO-50 19 Sep 04:00:17 04:02:12 12° 3° (N) 04:04:08 436.795 FM
KITSAT 1 19 Sep 04:00:52 04:08:46 52° 42° (NE) 04:16:36 435.175 FM
RS-15 19 Sep 04:01:33 04:10:18 29° 104° (ESE) 04:18:58 29.354 - 29.394 USB, Beacon 29.352 USB
AO-Echo 19 Sep 04:14:24 04:19:08 58° 289° (WNW) 04:23:57 ?
Gurwin Techsat 1B 19 Sep 04:22:25 04:27:46 72° 103° (ESE) 04:33:04 435.225 FM
ITAMSAT 1 19 Sep 04:38:17 04:43:16 47° 293° (WNW) 04:48:14 435.822 SSB
Uribyol 2 19 Sep 04:42:44 04:47:37 41° 294° (WNW) 04:52:29 436.500 FM
Oscar 19 19 Sep 04:57:53 05:01:15 18° 304° (NW) 05:04:36 437.125 CW, 437.150 USB
TMSAT-1 19 Sep 04:59:56 05:05:16 76° 287° (WNW) 05:10:33 436.925 FM
JAS-1B 19 Sep 05:04:58 05:10:13 34° 299° (WNW) 05:15:14 435.800 - 435.900 CW/SSB
ISS 19 Sep 05:12:00 05:15:20 83° 158° (SSE) 05:18:41 145.800 FM
AO-27 19 Sep 05:13:39 05:17:54 26° 300° (WNW) 05:22:08 436.795 MHz FM
AO-7 19 Sep 05:23:11 05:31:04 45° 99° (E) 05:38:54 29.400 - 29.500 MHz
Uosat F 19 Sep 05:23:54 05:28:34 37° 97° (E) 05:33:13 435.120 FM
OPAL 19 Sep 05:32:35 05:37:39 54° 257° (WSW) 05:42:48 ?
SO-50 19 Sep 05:40:56 05:44:32 21° 27° (NNE) 05:48:11 436.795 FM
UOSAT-12 19 Sep 05:41:22 05:43:20 12° 1° (N) 05:45:18 437.025 FM, 437.400 FM
KITSAT 1 19 Sep 05:56:31 06:04:14 51° 245° (WSW) 06:11:56 435.175 FM
Gurwin Techsat 1B 19 Sep 06:03:20 06:07:13 21° 302° (WNW) 06:11:05 435.225 FM
RS-15 19 Sep 06:10:13 06:21:15 90° 308° (NW) 06:32:17 29.354 - 29.394 USB, Beacon 29.352 USB
STRAND 1 19 Sep 06:13:24 06:17:43 29° 62° (ENE) 06:22:03 ?
JAS-2 19 Sep 06:23:32 06:28:31 27° 94° (E) 06:33:59 435.800 - 435.900 CW/SSB, 435.910 FM
TMSAT-1 19 Sep 06:41:32 06:44:20 15° 307° (NW) 06:47:08 436.925 FM
ISS 19 Sep 06:48:56 06:52:13 52° 358° (N) 06:55:29 145.800 FM
Hamsat 19 Sep 06:53:54 06:57:50 34° 96° (E) 07:01:42 145.90 MHz
Uosat F 19 Sep 07:02:49 07:07:20 34° 296° (WNW) 07:11:50 435.120 FM
AO-7 19 Sep 07:16:05 07:24:01 52° 300° (WNW) 07:31:55 29.400 - 29.500 MHz
SO-50 19 Sep 07:21:05 07:25:53 74° 49° (NE) 07:30:44 436.795 FM
UOSAT-12 19 Sep 07:21:51 07:25:18 20° 25° (NNE) 07:28:45 437.025 FM, 437.400 FM
STRAND 1 19 Sep 07:51:50 07:56:43 46° 261° (W) 08:01:38 ?
JAS-2 19 Sep 08:08:12 08:13:55 60° 290° (WNW) 08:20:21 435.800 - 435.900 CW/SSB, 435.910 FM
RS-15 19 Sep 08:24:49 08:35:03 42° 337° (NNW) 08:45:24 29.354 - 29.394 USB, Beacon 29.352 USB
ISS 19 Sep 08:25:47 08:29:08 82° 18° (NNE) 08:32:28 145.800 FM
MaSat-1 19 Sep 08:25:57 08:29:34 20° 105° (ESE) 08:33:08 437.345 MHz
Hamsat 19 Sep 08:30:04 08:33:42 27° 295° (WNW) 08:37:17 145.90 MHz
HO-68 19 Sep 08:41:51 08:43:50 11° 81° (E) 08:45:48 435.675 MHz FM
SO-67 19 Sep 08:43:56 08:47:25 85° 103° (ESE) 08:50:52 435.3500 MHz FM
UOSAT-12 19 Sep 09:01:36 09:06:20 66° 47° (NE) 09:11:00 437.025 FM, 437.400 FM
SO-50 19 Sep 09:02:33 09:05:59 20° 247° (WSW) 09:09:27 436.795 FM
AO-7 19 Sep 09:10:14 09:15:00 17° 324° (NW) 09:19:47 29.400 - 29.500 MHz
JAS-2 19 Sep 09:55:37 09:58:04 13° 309° (NW) 10:00:37 435.800 - 435.900 CW/SSB, 435.910 FM
MaSat-1 19 Sep 10:00:53 10:05:55 70° 303° (WNW) 10:10:47 437.345 MHz
Oscar 11 19 Sep 10:02:36 10:04:44 13° 88° (E) 10:06:52 145.825 FM, Beacon 2401.500 USB
ISS 19 Sep 10:02:48 10:05:36 25° 217° (SW) 10:08:24 145.800 FM
UKube-1 19 Sep 10:17:54 10:21:27 24° 94° (E) 10:24:58 145.840 MHz, 145.915 MHz
HO-68 19 Sep 10:26:01 10:33:07 59° 102° (ESE) 10:40:10 435.675 MHz FM
RS-15 19 Sep 10:40:53 10:50:49 37° 11° (N) 11:00:58 29.354 - 29.394 USB, Beacon 29.352 USB
UOSAT-12 19 Sep 10:42:30 10:46:04 22° 247° (WSW) 10:49:36 437.025 FM, 437.400 FM
FUNcube-1 19 Sep 11:26:00 11:30:23 40° 97° (E) 11:34:42 145.950 - 145.970 MHz USB
Oscar 11 19 Sep 11:37:06 11:41:28 74° 286° (WNW) 11:45:47 145.825 FM, Beacon 2401.500 USB
MaSat-1 19 Sep 11:40:17 11:43:30 17° 322° (NW) 11:46:36 437.345 MHz
PCSat 19 Sep 11:50:42 11:53:16 14° 103° (ESE) 11:55:50 145.825 MHz
UKube-1 19 Sep 11:53:42 11:57:49 41° 292° (WNW) 12:01:54 145.840 MHz, 145.915 MHz
Oscar 16 19 Sep 12:03:03 12:04:44 12° 50° (NE) 12:06:26 437.025 USB, Beacon 2401.1428
HO-68 19 Sep 12:14:10 12:20:32 36° 303° (WNW) 12:26:54 435.675 MHz FM
JAS-1B 19 Sep 12:15:57 12:20:09 16° 49° (NE) 12:24:02 435.800 - 435.900 CW/SSB
ITAMSAT 1 19 Sep 12:45:40 12:47:35 12° 51° (NE) 12:49:30 435.822 SSB
Uribyol 2 19 Sep 12:49:16 12:51:45 14° 52° (NE) 12:54:14 436.500 FM
RS-15 19 Sep 12:54:36 13:05:36 66° 42° (NE) 13:16:58 29.354 - 29.394 USB, Beacon 29.352 USB
Oscar 19 19 Sep 13:00:02 13:04:29 30° 62° (ENE) 13:08:57 437.125 CW, 437.150 USB
FUNcube-1 19 Sep 13:02:40 13:06:37 28° 296° (WNW) 13:10:32 145.950 - 145.970 MHz USB
Sapphire 19 Sep 13:03:39 13:08:47 47° 116° (ESE) 13:13:58 437.095 MHz 1200 baud AX-25 AFSK
Oscar 11 19 Sep 13:15:43 13:16:52 11° 305° (NW) 13:18:02 145.825 FM, Beacon 2401.500 USB
AO-27 19 Sep 13:18:14 13:22:04 21° 58° (ENE) 13:25:55 436.795 MHz FM
PCSat 19 Sep 13:30:22 13:35:47 78° 122° (ESE) 13:41:14 145.825 MHz
Oscar 16 19 Sep 13:37:58 13:43:05 60° 70° (ENE) 13:48:13 437.025 USB, Beacon 2401.1428
AO-Echo 19 Sep 13:53:21 13:57:43 39° 67° (ENE) 14:02:05 ?
JAS-1B 19 Sep 14:01:33 14:09:43 61° 68° (ENE) 14:16:33 435.800 - 435.900 CW/SSB
HO-68 19 Sep 14:05:31 14:06:14 10° 326° (NW) 14:06:57 435.675 MHz FM
Gurwin Techsat 1B 19 Sep 14:09:02 14:13:28 28° 61° (ENE) 14:17:56 435.225 FM
ITAMSAT 1 19 Sep 14:21:00 14:26:06 63° 70° (ENE) 14:31:14 435.822 SSB
Uribyol 2 19 Sep 14:25:12 14:30:20 72° 72° (ENE) 14:35:32 436.500 FM
AO-7 19 Sep 14:36:37 14:42:58 26° 45° (NE) 14:49:19 29.400 - 29.500 MHz
Oscar 19 19 Sep 14:38:39 14:43:39 46° 261° (W) 14:48:40 437.125 CW, 437.150 USB
TMSAT-1 19 Sep 14:45:35 14:50:29 40° 66° (ENE) 14:55:25 436.925 FM
Sapphire 19 Sep 14:47:19 14:52:21 38° 317° (NW) 14:57:25 437.095 MHz 1200 baud AX-25 AFSK
AO-27 19 Sep 14:55:58 15:01:07 68° 257° (WSW) 15:06:19 436.795 MHz FM
Uosat F 19 Sep 15:05:34 15:08:06 14° 53° (NE) 15:10:39 435.120 FM
RS-15 19 Sep 15:07:20 15:17:40 48° 247° (WSW) 15:28:25 29.354 - 29.394 USB, Beacon 29.352 USB
PCSat 19 Sep 15:15:14 15:19:47 27° 324° (NW) 15:24:22 145.825 MHz
Oscar 16 19 Sep 15:18:51 15:22:50 22° 269° (W) 15:26:50 437.025 USB, Beacon 2401.1428
AO-Echo 19 Sep 15:32:33 15:36:37 28° 265° (W) 15:40:41 ?
Gurwin Techsat 1B 19 Sep 15:48:02 15:53:12 51° 260° (W) 15:58:23 435.225 FM
JAS-1B 19 Sep 15:53:10 16:00:36 34° 265° (W) 16:07:00 435.800 - 435.900 CW/SSB
ITAMSAT 1 19 Sep 16:02:14 16:06:03 21° 269° (W) 16:09:54 435.822 SSB
Uribyol 2 19 Sep 16:06:53 16:10:23 18° 271° (W) 16:13:54 436.500 FM
TMSAT-1 19 Sep 16:25:43 16:30:29 34° 265° (W) 16:35:17 436.925 FM
AO-7 19 Sep 16:26:22 16:34:41 82° 68° (ENE) 16:43:01 29.400 - 29.500 MHz
Sapphire 19 Sep 16:34:25 16:37:22 15° 341° (NNW) 16:40:20 437.095 MHz 1200 baud AX-25 AFSK
MaSat-1 19 Sep 16:37:59 16:40:21 15° 35° (NE) 16:42:33 437.345 MHz
Uosat F 19 Sep 16:41:07 16:46:06 78° 73° (ENE) 16:51:08 435.120 FM
JAS-2 19 Sep 16:42:55 16:46:04 17° 54° (NE) 16:49:16 435.800 - 435.900 CW/SSB, 435.910 FM
PCSat 19 Sep 17:02:55 17:05:10 12° 349° (N) 17:07:25 145.825 MHz
OPAL 19 Sep 17:38:40 17:43:09 29° 96° (E) 17:47:33 ?
Saudisat 1A 19 Sep 17:46:17 17:50:11 32° 118° (ESE) 17:54:06 436.775 MHz
Hamsat 19 Sep 17:50:53 17:55:00 42° 70° (ENE) 17:59:07 145.90 MHz
MaSat-1 19 Sep 18:13:50 18:17:56 82° 59° (ENE) 18:21:24 437.345 MHz
Sapphire 19 Sep 18:21:13 18:23:16 12° 8° (N) 18:25:20 437.095 MHz 1200 baud AX-25 AFSK
AO-7 19 Sep 18:21:44 18:28:23 26° 269° (W) 18:35:05 29.400 - 29.500 MHz
Uosat F 19 Sep 18:22:32 18:25:31 16° 271° (W) 18:28:30 435.120 FM
JAS-2 19 Sep 18:25:18 18:30:32 85° 255° (WSW) 18:35:47 435.800 - 435.900 CW/SSB, 435.910 FM
KITSAT 1 19 Sep 18:37:57 18:42:15 16° 99° (E) 18:46:33 435.175 FM
PCSat 19 Sep 18:48:21 18:51:05 14° 16° (NNE) 18:53:49 145.825 MHz
HO-68 19 Sep 19:14:37 19:19:04 18° 45° (NE) 19:23:33 435.675 MHz FM
OPAL 19 Sep 19:17:15 19:22:13 47° 295° (WNW) 19:27:06 ?
SO-67 19 Sep 19:20:31 19:23:53 51° 73° (ENE) 19:27:16 435.3500 MHz FM
Saudisat 1A 19 Sep 19:25:27 19:29:40 43° 318° (NW) 19:33:54 436.775 MHz
Hamsat 19 Sep 19:27:39 19:31:08 23° 268° (W) 19:34:38 145.90 MHz
STRAND 1 19 Sep 19:58:00 20:02:55 43° 98° (E) 20:07:48 ?
Sapphire 19 Sep 20:04:22 20:08:46 24° 34° (NE) 20:13:09 437.095 MHz 1200 baud AX-25 AFSK
JAS-2 19 Sep 20:14:47 20:16:36 12° 275° (W) 20:18:25 435.800 - 435.900 CW/SSB, 435.910 FM
KITSAT 1 19 Sep 20:28:10 20:36:08 67° 120° (ESE) 20:44:09 435.175 FM
PCSat 19 Sep 20:31:17 20:36:13 34° 41° (NE) 20:41:08 145.825 MHz
SO-67 19 Sep 20:55:41 20:57:14 13° 271° (W) 20:58:47 435.3500 MHz FM
HO-68 19 Sep 20:58:30 21:05:33 66° 67° (ENE) 21:12:38 435.675 MHz FM
Oscar 11 19 Sep 21:01:20 21:04:25 19° 61° (ENE) 21:07:31 145.825 FM, Beacon 2401.500 USB
Saudisat 1A 19 Sep 21:07:52 21:10:22 15° 341° (NNW) 21:12:52 436.775 MHz
UKube-1 19 Sep 21:17:09 21:21:06 35° 66° (ENE) 21:25:04 145.840 MHz, 145.915 MHz
STRAND 1 19 Sep 21:37:30 21:41:58 31° 297° (WNW) 21:46:25 ?
Sapphire 19 Sep 21:47:27 21:52:55 90° 235° (SW) 21:58:22 437.095 MHz 1200 baud AX-25 AFSK
PCSat 19 Sep 22:14:36 22:19:55 55° 242° (WSW) 22:25:11 145.825 MHz
KITSAT 1 19 Sep 22:24:24 22:32:02 43° 324° (NW) 22:39:42 435.175 FM
FUNcube-1 19 Sep 22:26:09 22:30:27 51° 70° (ENE) 22:34:53 145.950 - 145.970 MHz USB
Oscar 11 19 Sep 22:35:56 22:40:14 57° 259° (W) 22:44:34 145.825 FM, Beacon 2401.500 USB
HO-68 19 Sep 22:47:42 22:53:46 30° 267° (W) 22:59:53 435.675 MHz FM
Saudisat 1A 19 Sep 22:50:32 22:51:49 11° 5° (N) 22:53:06 436.775 MHz
UKube-1 19 Sep 22:53:38 22:57:22 28° 265° (W) 23:01:07 145.840 MHz, 145.915 MHz
